{"data":{"norad_id":59036,"intl_designator":"2024-038P","name":"STARLINK-31217","alt_names":[],"object_type":"PAYLOAD","status":"ACTIVE","operator":null,"country":"US","launch_date":"2024-02-25","launch_site_code":"AFETR","launch_vehicle":null,"mission":null,"orbit_class":"UNKNOWN","rcs_meters":null,"size_class":null,"mass_kg":null,"dimensions":null,"purposes":["comms"],"wikipedia_slug":null,"has_3d_model":false,"image_url":null,"decayed_at":null,"tle_current":{"epoch":"2026-09-20T02:30:46.952640Z","epoch_age_seconds":189919,"freshness":"STALE","line1":"1 59036U 24038P   26263.10471010 -.00000014  00000+0  90305-5 0  9990","line2":"2 59036  43.0010 271.2635 0001184 266.4136  93.6580 15.27575714145679","mean_motion":15.27575714,"eccentricity":0.0001184,"inclination_deg":43.001,"raan_deg":271.2635,"arg_perigee_deg":266.4136,"mean_anomaly_deg":93.658,"bstar":9.0305e-6,"rev_number":14567,"period_min":94.267013202856,"perigee_km":482.24956394224,"apogee_km":483.87429584884,"semimajor_km":6861.1989298955,"source":"CELESTRAK","updated_at":"2026-09-21T09:00:34.030981Z"}}}